TimeCST,TemperatureF,Dew PointF,Humidity,Sea Level PressureIn,VisibilityMPH,Wind Direction,Wind SpeedMPH,Gust SpeedMPH,PrecipitationIn,Events,Conditions,WindDirDegrees,DateUTC
12:16 AM,46.4,37.4,71,30.04,10.0,North,10.4,20.7,N/A,,Overcast,10,2013-02-08 06:16:00
1:35 AM,46.4,37.4,71,30.05,10.0,North,6.9,-,N/A,,Overcast,350,2013-02-08 07:35:00
1:55 AM,44.6,35.6,71,30.06,10.0,NNE,10.4,-,N/A,,Overcast,20,2013-02-08 07:55:00
2:35 AM,44.6,35.6,71,30.08,10.0,North,9.2,-,N/A,,Overcast,10,2013-02-08 08:35:00
2:55 AM,44.6,35.6,71,30.09,10.0,North,11.5,17.3,N/A,,Overcast,360,2013-02-08 08:55:00
3:55 AM,42.8,32.0,66,30.11,10.0,North,8.1,-,N/A,,Overcast,350,2013-02-08 09:55:00
4:15 AM,42.8,32.0,66,30.12,10.0,NNW,11.5,-,N/A,,Overcast,340,2013-02-08 10:15:00
4:36 AM,42.8,30.2,61,30.13,10.0,NNW,9.2,-,N/A,,Overcast,340,2013-02-08 10:36:00
4:55 AM,41.0,30.2,65,30.15,10.0,NNW,12.7,16.1,N/A,,Overcast,340,2013-02-08 10:55:00
5:15 AM,41.0,30.2,65,30.16,10.0,North,10.4,-,N/A,,Overcast,350,2013-02-08 11:15:00
6:15 AM,37.4,28.4,70,30.20,10.0,North,8.1,18.4,N/A,,Overcast,10,2013-02-08 12:15:00
6:35 AM,37.4,26.6,65,30.21,10.0,North,13.8,17.3,N/A,,Overcast,360,2013-02-08 12:35:00
6:56 AM,35.6,26.6,70,30.22,10.0,North,10.4,-,N/A,,Overcast,360,2013-02-08 12:56:00
7:15 AM,35.6,26.6,70,30.23,9.0,North,6.9,-,N/A,,Overcast,10,2013-02-08 13:15:00
7:35 AM,35.6,26.6,70,30.24,9.0,North,9.2,16.1,N/A,,Overcast,360,2013-02-08 13:35:00
8:15 AM,37.4,26.6,65,30.26,8.0,North,6.9,-,N/A,,Overcast,10,2013-02-08 14:15:00
8:35 AM,37.4,26.6,65,30.27,8.0,North,5.8,-,N/A,,Overcast,350,2013-02-08 14:35:00
9:35 AM,37.4,26.6,65,30.29,10.0,North,8.1,-,N/A,,Overcast,360,2013-02-08 15:35:00
9:55 AM,37.4,26.6,65,30.30,10.0,NW,6.9,-,N/A,,Overcast,310,2013-02-08 15:55:00
10:15 AM,37.4,26.6,65,30.30,10.0,NNW,8.1,-,N/A,,Overcast,330,2013-02-08 16:15:00
10:35 AM,39.2,26.6,61,30.30,10.0,North,5.8,-,N/A,,Overcast,350,2013-02-08 16:35:00
10:55 AM,39.2,26.6,61,30.31,10.0,North,6.9,-,N/A,,Mostly Cloudy,10,2013-02-08 16:55:00
11:15 AM,39.2,26.6,61,30.30,10.0,NE,3.5,-,N/A,,Mostly Cloudy,40,2013-02-08 17:15:00
11:55 AM,42.8,28.4,57,30.29,10.0,NNE,4.6,-,N/A,,Scattered Clouds,20,2013-02-08 17:55:00
12:15 PM,42.8,28.4,57,30.28,10.0,ENE,5.8,-,N/A,,Clear,60,2013-02-08 18:15:00
1:15 PM,46.4,28.4,50,30.25,10.0,ENE,6.9,-,N/A,,Clear,70,2013-02-08 19:15:00
1:35 PM,46.4,28.4,50,30.24,10.0,SE,4.6,-,N/A,,Clear,130,2013-02-08 19:35:00
2:15 PM,46.4,28.4,50,30.26,10.0,South,5.8,-,N/A,,Clear,170,2013-02-08 20:15:00
2:35 PM,48.2,30.2,50,30.25,10.0,East,3.5,-,N/A,,Clear,100,2013-02-08 20:35:00
3:15 PM,50.0,30.2,47,30.25,10.0,WSW,3.5,-,N/A,,Clear,250,2013-02-08 21:15:00
3:35 PM,50.0,30.2,47,30.25,10.0,West,3.5,-,N/A,,Clear,270,2013-02-08 21:35:00
4:35 PM,51.8,28.4,41,30.23,10.0,ENE,5.8,-,N/A,,Clear,70,2013-02-08 22:35:00
4:55 PM,50.0,28.4,43,30.23,10.0,ENE,8.1,-,N/A,,Clear,70,2013-02-08 22:55:00
5:15 PM,48.2,28.4,46,30.23,10.0,ENE,3.5,-,N/A,,Clear,60,2013-02-08 23:15:00
5:55 PM,46.4,28.4,50,30.25,10.0,Calm,Calm,-,N/A,,Clear,0,2013-02-08 23:55:00
6:15 PM,46.4,28.4,50,30.25,10.0,East,3.5,-,N/A,,Clear,80,2013-02-09 00:15:00
7:15 PM,42.8,28.4,57,30.27,10.0,Calm,Calm,-,N/A,,Clear,0,2013-02-09 01:15:00
8:15 PM,41.0,28.4,61,30.25,10.0,East,5.8,-,N/A,,Clear,80,2013-02-09 02:15:00
8:35 PM,41.0,28.4,61,30.25,10.0,East,6.9,-,N/A,,Clear,90,2013-02-09 02:35:00
9:15 PM,39.2,26.6,61,30.26,10.0,East,5.8,-,N/A,,Clear,90,2013-02-09 03:15:00
10:15 PM,37.4,28.4,70,30.26,10.0,ESE,9.2,-,N/A,,Clear,110,2013-02-09 04:15:00
10:55 PM,37.4,28.4,70,30.27,7.0,ESE,10.4,-,N/A,,Scattered Clouds,110,2013-02-09 04:55:00
11:16 PM,37.4,28.4,70,30.27,8.0,ESE,11.5,18.4,N/A,,Mostly Cloudy,120,2013-02-09 05:16:00
11:35 PM,37.4,28.4,70,30.27,8.0,ESE,11.5,-,N/A,,Overcast,120,2013-02-09 05:35:00
11:55 PM,35.6,26.6,70,30.26,8.0,ESE,11.5,16.1,N/A,,Mostly Cloudy,110,2013-02-09 05:55:00